Main page
Satellite images Climate Cyclones Lightning AirportsFAQ Languages Contact Newsletter About
Weather : Europe Africa North America South America Asia Australia-Oceania Others

, Mae Sot, Mae Sot Airport

48375

latitude: , longitude: Thailand, elevation: 16-40N m


METAR: VTPM 230700Z 06004KT 330V130 9999 SCT030 33/21 Q1011 NOSIG